[[{"header":{"parameterUnit":"m.s-1","parameterCategory":2,"la1":30.2991,"la2":30.254,"lo1":-89.0895,"lo2":-89.0444,"dx":0.0017,"dy":0.0017,"nx":28,"ny":28,"refTime":"2022-12-18T15:00:00:Z","depth":"0","parameterNumber":2,"parameterNumberName":"U-component_of_CURRENTS"},"data":[0,0,0,0,0,0,0,0,0,0,0,0,0,0,0,0,0,0,0,0,0,0,0,0,0,0,0,0,0,0,0,0,0,0,0,0,0,0,0,0,0,0,0,0,0,0,0,0,0,0,0,0,0,0,0,0,0,0,-0.2055,-0.2055,0,-0.2024,-0.2023,-0.2022,-0.1993,-0.1993,-0.1993,-0.1993,-0.1928,-0.1927,-0.1925,0,0,0,0,0,0,0,0,0,0,0,0,0,-0.2048,-0.2048,-0.2055,-0.2055,-0.2055,-0.2024,-0.2023,-0.2022,-0.1993,-0.1993,-0.1993,-0.1993,-0.1929,-0.1927,-0.1925,0,0,0,0,0,0,0,0,0,0,0,0,0,-0.2034,-0.2048,-0.2055,-0.2039,-0.2037,-0.2024,-0.2023,-0.2022,-0.1993,-0.1993,-0.1993,-0.1992,-0.193,-0.1927,-0.1925,-0.1912,0,0,-0.1917,-0.1916,0,0,0,0,0,0,0,0,-0.2035,-0.2034,-0.2041,-0.204,-0.2038,-0.2015,-0.1997,-0.1985,-0.1993,-0.2006,-0.1993,-0.1992,-0.1956,-0.1952,-0.1942,-0.1909,-0.1906,-0.1917,-0.1916,-0.1915,-0.1914,0,0,0,0,0,0,0,-0.2036,-0.2035,-0.2039,-0.2041,-0.2039,-0.2019,-0.2017,-0.1994,-0.1979,-0.2005,-0.2004,-0.2005,-0.1955,-0.1945,-0.194,-0.1905,-0.1917,-0.1915,-0.1913,-0.1913,-0.1866,-0.1866,0,0,0,0,0,0,-0.2049,-0.2036,-0.204,-0.2039,-0.204,-0.2019,-0.2017,-0.202,-0.198,-0.1975,-0.2005,-0.2004,-0.1949,-0.1943,-0.1938,-0.1932,-0.1915,-0.1912,-0.1911,-0.1866,-0.1866,-0.1866,0,0,0,0,0,0,-0.2049,-0.2049,-0.2042,-0.2039,-0.2037,-0.202,-0.2023,-0.2019,-0.2011,-0.1981,-0.1975,-0.2002,-0.1948,-0.1941,-0.1923,-0.1928,-0.1911,-0.1909,-0.1866,-0.1866,-0.1866,-0.1912,0,0,0,0,0,0,-0.2048,-0.2049,-0.205,-0.204,-0.2038,-0.2043,-0.2024,-0.2019,-0.2014,-0.2012,-0.1977,-0.197,-0.1948,-0.1927,-0.192,-0.1925,-0.1907,-0.1865,-0.1866,-0.1866,-0.191,-0.1914,-0.1917,0,0,0,0,0,-0.2048,-0.2055,-0.2051,-0.2051,-0.2042,-0.2044,-0.204,-0.2025,-0.2014,-0.2016,-0.199,-0.1972,-0.1925,-0.1925,-0.1917,-0.1921,-0.1865,-0.1866,-0.1866,-0.1908,-0.1913,-0.1917,0,0,0,0,0,0,-0.2051,-0.2053,-0.2048,-0.2054,-0.2053,-0.204,-0.2038,-0.2029,-0.201,-0.2004,-0.1972,-0.1965,-0.1951,-0.193,-0.193,-0.1909,-0.1893,-0.1892,-0.1927,-0.1931,-0.1934,-0.194,-0.1905,0,0,0,0,0,-0.2054,-0.2057,-0.2058,-0.2061,-0.2063,-0.205,-0.2047,-0.204,-0.2026,-0.2017,-0.1992,-0.1966,-0.1947,-0.1935,-0.1913,-0.19,-0.1895,-0.1898,-0.1902,-0.1905,-0.1905,-0.1897,-0.19,-0.1868,-0.1868,-0.1868,0,0,-0.2053,-0.2056,-0.2055,-0.2061,-0.2056,-0.2065,-0.2047,-0.2048,-0.2051,-0.2012,-0.2001,-0.1976,-0.1946,-0.1933,-0.1925,-0.1917,-0.1917,-0.1906,-0.1909,-0.1907,-0.1898,-0.1901,-0.1904,-0.1869,-0.1869,-0.1868,0,0,-0.2062,-0.206,-0.2069,-0.2074,-0.2078,-0.2073,-0.2078,-0.207,-0.206,-0.2051,-0.2024,-0.2004,-0.1973,-0.1954,-0.194,-0.1948,-0.1935,-0.1942,-0.1962,-0.1955,-0.1958,-0.196,-0.1984,-0.1988,-0.1943,-0.1943,-0.1943,0,-0.2063,-0.2076,-0.2072,-0.2087,-0.2092,-0.2082,-0.2096,-0.2089,-0.2073,-0.2066,-0.2054,-0.2008,-0.1983,-0.1967,-0.197,-0.1956,-0.196,-0.1951,-0.196,-0.1962,-0.1964,-0.1987,-0.1991,-0.1946,-0.1945,-0.1945,-0.1945,0,-0.2082,-0.2094,-0.2102,-0.2117,-0.2122,-0.2132,-0.2131,-0.2128,-0.2114,-0.2103,-0.2084,-0.2048,-0.2021,-0.2012,-0.1992,-0.1989,-0.1993,-0.1968,-0.1953,-0.197,-0.1994,-0.1997,-0.1949,-0.1948,-0.1947,-0.1947,0,0,-0.2073,-0.2109,-0.2109,-0.2123,-0.2139,-0.2143,-0.2154,-0.2156,-0.2158,-0.2135,-0.2132,-0.2095,-0.2071,-0.2054,-0.2025,-0.2016,-0.2037,-0.1999,-0.1998,-0.2029,-0.2048,-0.2153,-0.2166,-0.2014,-0.2014,-0.2014,-0.207,0,-0.2087,-0.2123,-0.2136,-0.2162,-0.2179,-0.2181,-0.2192,-0.2191,-0.218,-0.2175,-0.214,-0.2122,-0.2089,-0.2074,-0.2062,-0.2034,-0.2043,-0.2026,-0.2021,-0.2021,-0.2117,-0.2172,-0.2271,-0.2338,-0.2073,-0.2074,-0.2074,0,-0.2097,-0.212,-0.2155,-0.2186,-0.2193,-0.2206,-0.2215,-0.2222,-0.2218,-0.2211,-0.219,-0.2163,-0.2142,-0.2111,-0.2089,-0.208,-0.2073,-0.2057,-0.2058,-0.214,-0.2132,-0.2271,-0.2353,-0.2387,-0.2078,-0.2078,-0.2078,0,-0.2084,-0.2128,-0.2154,-0.2166,-0.2203,-0.2212,-0.2222,-0.2227,-0.2232,-0.2227,-0.2233,-0.2201,-0.2187,-0.216,-0.2139,-0.211,-0.2134,-0.2086,-0.2181,-0.2188,-0.2264,-0.2279,-0.2382,-0.2086,-0.2086,-0.2086,-0.2086,0,-0.2092,-0.2108,-0.215,-0.2164,-0.2183,-0.2209,-0.2224,-0.223,-0.2246,-0.2266,-0.2243,-0.2257,-0.2196,-0.2202,-0.2171,-0.2212,-0.2163,-0.2208,-0.2215,-0.2288,-0.2303,-0.2328,-0.2289,-0.2088,-0.2088,-0.2087,-0.2087,0,-0.207,-0.2105,-0.2129,-0.2169,-0.2179,-0.2185,-0.222,-0.2239,-0.2257,-0.2285,-0.2286,-0.2296,-0.2328,-0.2304,-0.2281,-0.2275,-0.23,-0.2309,-0.2424,-0.2444,-0.2566,-0.2525,-0.2495,-0.2484,-0.2422,-0.2425,-0.2428,0,-0.2062,-0.2076,-0.2114,-0.213,-0.2148,-0.2169,-0.2195,-0.2228,-0.2258,-0.2318,-0.234,-0.2386,-0.2455,-0.2497,-0.2523,-0.2552,-0.2436,-0.2606,-0.2565,-0.2622,-0.2578,-0.244,-0.242,-0.2685,-0.269,-0.2693,-0.2696,0,-0.2031,-0.2044,-0.2062,-0.2096,-0.2126,-0.2156,-0.2198,-0.2233,-0.2295,-0.2371,-0.2476,-0.2544,-0.2651,-0.2769,-0.2813,-0.2792,-0.2618,-0.2684,-0.2697,-0.2776,-0.2671,-0.265,-0.261,-0.2729,-0.2726,-0.2723,-0.2721,-0.272,-0.1987,-0.1989,-0.2016,-0.2042,-0.2086,-0.2135,-0.2146,-0.2266,-0.2358,-0.2511,-0.2588,-0.2805,-0.294,-0.3065,-0.3064,-0.3121,-0.2902,-0.303,-0.2972,-0.2822,-0.2829,-0.2892,-0.3043,-0.3042,-0.3041,-0.304,-0.3039,0,-0.1917,-0.1933,-0.1963,-0.2,-0.203,-0.2062,-0.2139,-0.2173,-0.2324,-0.2616,-0.2785,-0.3191,-0.3331,-0.342,-0.3512,-0.3432,-0.3291,-0.3295,-0.3122,-0.3084,-0.3142,-0.3178,-0.3421,-0.3421,-0.3421,-0.3421,-0.3421,-0.3421,-0.1878,-0.1873,-0.1894,-0.1916,-0.1949,-0.1948,-0.1972,-0.2094,-0.2284,-0.2687,-0.3083,-0.3369,-0.3418,-0.3729,-0.3712,-0.3592,-0.3428,-0.332,-0.3209,-0.329,-0.3259,-0.323,-0.3259,-0.3516,-0.3516,-0.3155,-0.3152,-0.315]},{"header":{"parameterUnit":"m.s-1","parameterCategory":2,"la1":30.2991,"la2":30.254,"lo1":-89.0895,"lo2":-89.0444,"dx":0.0017,"dy":0.0017,"nx":28,"ny":28,"refTime":"2022-12-18T15:00:00:Z","depth":"0","parameterNumber":3,"parameterNumberName":"V-component_of_CURRENTS"},"data":[0,0,0,0,0,0,0,0,0,0,0,0,0,0,0,0,0,0,0,0,0,0,0,0,0,0,0,0,0,0,0,0,0,0,0,0,0,0,0,0,0,0,0,0,0,0,0,0,0,0,0,0,0,0,0,0,0,0,-0.0486,-0.0485,0,-0.0429,-0.0428,-0.0427,-0.0404,-0.0404,-0.0404,-0.0404,-0.0355,-0.0353,-0.0352,0,0,0,0,0,0,0,0,0,0,0,0,0,-0.0556,-0.0555,-0.0486,-0.0485,-0.0484,-0.0429,-0.0428,-0.0427,-0.0404,-0.0404,-0.0404,-0.0404,-0.0355,-0.0354,-0.0352,0,0,0,0,0,0,0,0,0,0,0,0,0,-0.0516,-0.0555,-0.0486,-0.0465,-0.0463,-0.0429,-0.0428,-0.0427,-0.0404,-0.0404,-0.0404,-0.0404,-0.0356,-0.0354,-0.0352,-0.0338,0,0,-0.0346,-0.0345,0,0,0,0,0,0,0,0,-0.0518,-0.0514,-0.0469,-0.0467,-0.0464,-0.0423,-0.0435,-0.0397,-0.0404,-0.0427,-0.0404,-0.0404,-0.0378,-0.0374,-0.0364,-0.0336,-0.0334,-0.0345,-0.0344,-0.0343,-0.0343,0,0,0,0,0,0,0,-0.0521,-0.0516,-0.0464,-0.0468,-0.0465,-0.0452,-0.0447,-0.0427,-0.0404,-0.0425,-0.0423,-0.0415,-0.0376,-0.0366,-0.0363,-0.0333,-0.0345,-0.0344,-0.0342,-0.0342,-0.0288,-0.0288,0,0,0,0,0,0,-0.0527,-0.0518,-0.0466,-0.0462,-0.0491,-0.0451,-0.0445,-0.0436,-0.0403,-0.0398,-0.0415,-0.0414,-0.0369,-0.0365,-0.0361,-0.0339,-0.0343,-0.0341,-0.034,-0.0288,-0.0288,-0.0288,0,0,0,0,0,0,-0.0529,-0.0523,-0.0468,-0.0488,-0.0481,-0.045,-0.044,-0.0435,-0.0425,-0.0396,-0.0391,-0.041,-0.0369,-0.0364,-0.0341,-0.0337,-0.0341,-0.0339,-0.0289,-0.0288,-0.0288,-0.0298,0,0,0,0,0,0,-0.0531,-0.0524,-0.0523,-0.0489,-0.048,-0.045,-0.044,-0.0434,-0.042,-0.0418,-0.039,-0.0385,-0.0369,-0.0344,-0.0339,-0.0335,-0.0337,-0.0289,-0.0289,-0.0288,-0.0298,-0.0298,-0.0298,0,0,0,0,0,-0.0534,-0.0533,-0.0524,-0.0517,-0.0478,-0.045,-0.0444,-0.0423,-0.042,-0.0415,-0.0394,-0.0386,-0.0339,-0.0342,-0.0337,-0.0331,-0.0289,-0.0289,-0.0288,-0.0298,-0.0298,-0.0298,0,0,0,0,0,0,-0.0564,-0.053,-0.0518,-0.0507,-0.0481,-0.0445,-0.044,-0.0425,-0.0405,-0.0405,-0.038,-0.0374,-0.0354,-0.0341,-0.0346,-0.0315,-0.0314,-0.0312,-0.0323,-0.0323,-0.0323,-0.0324,-0.0335,0,0,0,0,0,-0.057,-0.0561,-0.0524,-0.0516,-0.0504,-0.0473,-0.0461,-0.0444,-0.042,-0.0411,-0.0388,-0.0367,-0.0347,-0.0335,-0.0316,-0.0296,-0.0285,-0.029,-0.029,-0.0291,-0.0287,-0.027,-0.0269,-0.0286,-0.0286,-0.0286,0,0,-0.0581,-0.056,-0.0556,-0.0522,-0.0502,-0.0485,-0.0466,-0.0448,-0.0431,-0.0409,-0.0385,-0.0367,-0.0343,-0.0321,-0.0311,-0.0309,-0.0279,-0.029,-0.029,-0.0287,-0.027,-0.0268,-0.0267,-0.0286,-0.0286,-0.0286,0,0,-0.0599,-0.0578,-0.0577,-0.0554,-0.0523,-0.0498,-0.0494,-0.0457,-0.0439,-0.0413,-0.0394,-0.0371,-0.034,-0.0317,-0.0304,-0.0293,-0.0282,-0.0291,-0.0289,-0.0273,-0.0271,-0.027,-0.0254,-0.0251,-0.029,-0.029,-0.029,0,-0.0615,-0.0604,-0.0573,-0.0563,-0.0545,-0.0506,-0.0497,-0.047,-0.043,-0.0412,-0.0409,-0.0355,-0.0337,-0.0303,-0.03,-0.0292,-0.0284,-0.0291,-0.0273,-0.0272,-0.027,-0.0254,-0.025,-0.029,-0.029,-0.029,-0.029,0,-0.0629,-0.0617,-0.0614,-0.0586,-0.0563,-0.0549,-0.0504,-0.0479,-0.0454,-0.0424,-0.0386,-0.0356,-0.0323,-0.0315,-0.0304,-0.028,-0.0278,-0.0278,-0.0274,-0.0269,-0.0252,-0.0248,-0.0291,-0.029,-0.029,-0.029,0,0,-0.0671,-0.0633,-0.0632,-0.0622,-0.0574,-0.0556,-0.0522,-0.0478,-0.0455,-0.0415,-0.0382,-0.0346,-0.0326,-0.0309,-0.0289,-0.0273,-0.0254,-0.0272,-0.0271,-0.0258,-0.022,-0.0171,-0.0162,-0.0255,-0.0254,-0.0254,-0.0213,0,-0.0692,-0.0689,-0.0653,-0.0639,-0.0632,-0.0576,-0.0545,-0.0499,-0.0456,-0.0412,-0.0368,-0.0335,-0.0324,-0.031,-0.0289,-0.0257,-0.0245,-0.0265,-0.0225,-0.0223,-0.0183,-0.0156,-0.0104,-0.0059,-0.0209,-0.0209,-0.0208,0,-0.0718,-0.0711,-0.071,-0.0665,-0.0654,-0.0633,-0.0574,-0.0541,-0.0465,-0.043,-0.0381,-0.0343,-0.0295,-0.0298,-0.024,-0.0255,-0.0241,-0.0223,-0.0221,-0.0169,-0.0167,-0.0088,-0.0046,0.0033,-0.0202,-0.0203,-0.0203,0,-0.0776,-0.0746,-0.0749,-0.0735,-0.068,-0.0661,-0.0626,-0.0554,-0.0522,-0.0444,-0.0411,-0.0346,-0.0309,-0.0278,-0.0222,-0.0238,-0.0161,-0.0178,-0.0124,-0.0121,-0.0062,-0.0054,0.0062,-0.0155,-0.0155,-0.0155,-0.0155,0,-0.0818,-0.0815,-0.0778,-0.078,-0.0769,-0.071,-0.0682,-0.063,-0.0558,-0.0513,-0.0432,-0.0381,-0.0305,-0.0243,-0.0214,-0.0137,-0.0153,-0.0112,-0.0101,-0.0063,-0.0057,0.0026,0.006,-0.0154,-0.0154,-0.0154,-0.0155,0,-0.0883,-0.0859,-0.0859,-0.0816,-0.0801,-0.0796,-0.0729,-0.0706,-0.0624,-0.0562,-0.0539,-0.0408,-0.0303,-0.0222,-0.0148,-0.0117,-0.0016,-0.0041,0.0004,0.002,0.0145,0.0176,0.0279,0.0247,0.0028,0.0029,0.0031,0,-0.0914,-0.0925,-0.0904,-0.091,-0.0893,-0.087,-0.0852,-0.0761,-0.0723,-0.0576,-0.0548,-0.0412,-0.0304,-0.0146,-0.0033,0.0061,0.0058,0.0118,0.01,0.0179,0.0221,0.021,0.0172,0.0169,0.0171,0.0173,0.0174,0,-0.0971,-0.0967,-0.0972,-0.0999,-0.099,-0.0968,-0.0924,-0.0902,-0.078,-0.0704,-0.0574,-0.0472,-0.0236,-0.0053,0.0099,0.0141,0.018,0.0159,0.0232,0.0345,0.035,0.0316,0.0109,0.0191,0.019,0.0188,0.0187,0.0187,-0.1012,-0.1039,-0.1059,-0.1082,-0.1078,-0.1066,-0.1065,-0.099,-0.0923,-0.078,-0.0626,-0.0426,-0.0088,0.0177,0.0224,0.0414,0.0326,0.0423,0.0454,0.0433,0.0417,0.0253,0.0352,0.0352,0.0351,0.035,0.035,0,-0.1063,-0.1098,-0.1136,-0.1162,-0.1192,-0.1154,-0.1115,-0.1105,-0.1043,-0.0826,-0.067,-0.018,0.0094,0.0358,0.0686,0.0726,0.0644,0.0716,0.0718,0.0656,0.0524,0.0546,0.0703,0.0703,0.0703,0.0703,0.0703,0.0702,-0.109,-0.1155,-0.1185,-0.1263,-0.128,-0.1305,-0.1295,-0.125,-0.112,-0.081,-0.0471,-0.0215,0.0334,0.0951,0.1136,0.1059,0.1001,0.0993,0.0924,0.0877,0.0851,0.0826,0.0855,0.1075,0.1075,0.1014,0.1015,0.1015]}],[{"header":{"parameterUnit":"m.s-1","parameterCategory":2,"la1":30.2991,"la2":30.254,"lo1":-89.0895,"lo2":-89.0444,"dx":0.0017,"dy":0.0017,"nx":28,"ny":28,"refTime":"2022-12-18T15:00:00:Z","depth":"2","parameterNumber":2,"parameterNumberName":"U-component_of_CURRENTS"},"data":[0,0,0,0,0,0,0,0,0,0,0,0,0,0,0,0,0,0,0,0,0,0,0,0,0,0,0,0,0,0,0,0,0,0,0,0,0,0,0,0,0,0,0,0,0,0,0,0,0,0,0,0,0,0,0,0,0,0,-0.2006,-0.2006,0,-0.1975,-0.1974,-0.1973,-0.1945,-0.1945,-0.1945,-0.1945,-0.1881,-0.188,-0.1878,0,0,0,0,0,0,0,0,0,0,0,0,0,-0.1998,-0.1998,-0.2006,-0.2006,-0.2006,-0.1975,-0.1974,-0.1973,-0.1945,-0.1945,-0.1945,-0.1945,-0.1882,-0.188,-0.1878,0,0,0,0,0,0,0,0,0,0,0,0,0,-0.1985,-0.1999,-0.2006,-0.199,-0.1988,-0.1975,-0.1974,-0.1973,-0.1945,-0.1945,-0.1945,-0.1945,-0.1882,-0.188,-0.1878,-0.1864,0,0,-0.187,-0.1869,0,0,0,0,0,0,0,0,-0.1986,-0.1985,-0.1992,-0.1991,-0.1989,-0.1966,-0.1948,-0.1936,-0.1945,-0.1958,-0.1945,-0.1945,-0.1909,-0.1904,-0.1894,-0.1861,-0.1858,-0.187,-0.1868,-0.1867,-0.1867,0,0,0,0,0,0,0,-0.1987,-0.1986,-0.199,-0.1992,-0.1991,-0.197,-0.1968,-0.1945,-0.1931,-0.1957,-0.1956,-0.1957,-0.1907,-0.1897,-0.1893,-0.1857,-0.187,-0.1868,-0.1866,-0.1865,-0.1819,-0.1819,0,0,0,0,0,0,-0.1999,-0.1987,-0.1991,-0.199,-0.1991,-0.1971,-0.1968,-0.1971,-0.1932,-0.1927,-0.1957,-0.1956,-0.1901,-0.1896,-0.189,-0.1885,-0.1867,-0.1865,-0.1864,-0.1819,-0.1819,-0.1819,0,0,0,0,0,0,-0.1999,-0.2,-0.1993,-0.199,-0.1988,-0.1972,-0.1975,-0.1971,-0.1963,-0.1933,-0.1927,-0.1955,-0.1901,-0.1894,-0.1875,-0.1882,-0.1864,-0.1862,-0.1818,-0.1819,-0.1819,-0.1865,0,0,0,0,0,0,-0.1999,-0.2,-0.2001,-0.1991,-0.1989,-0.1994,-0.1975,-0.197,-0.1966,-0.1964,-0.1929,-0.1923,-0.19,-0.1879,-0.1873,-0.1878,-0.186,-0.1818,-0.1819,-0.1819,-0.1863,-0.1867,-0.187,0,0,0,0,0,-0.1999,-0.2006,-0.2002,-0.2002,-0.1993,-0.1995,-0.1991,-0.1977,-0.1966,-0.1968,-0.1943,-0.1924,-0.1878,-0.1877,-0.187,-0.1874,-0.1818,-0.1818,-0.1819,-0.1862,-0.1866,-0.187,0,0,0,0,0,0,-0.2002,-0.2004,-0.1999,-0.2005,-0.2004,-0.1991,-0.1989,-0.1981,-0.1962,-0.1956,-0.1925,-0.1917,-0.1904,-0.1883,-0.1883,-0.1862,-0.1845,-0.1845,-0.1881,-0.1884,-0.1888,-0.1894,-0.1858,0,0,0,0,0,-0.2005,-0.2008,-0.2009,-0.2012,-0.2015,-0.2002,-0.1998,-0.1992,-0.1978,-0.1969,-0.1945,-0.1919,-0.19,-0.1888,-0.1866,-0.1853,-0.1848,-0.1852,-0.1855,-0.1858,-0.1858,-0.185,-0.1853,-0.1821,-0.1821,-0.1821,0,0,-0.2005,-0.2007,-0.2007,-0.2012,-0.2007,-0.2017,-0.1999,-0.2,-0.2003,-0.1965,-0.1954,-0.193,-0.1899,-0.1886,-0.1878,-0.187,-0.187,-0.1859,-0.1862,-0.186,-0.1851,-0.1854,-0.1857,-0.1821,-0.1821,-0.1821,0,0,-0.2014,-0.2011,-0.2021,-0.2026,-0.203,-0.2025,-0.203,-0.2022,-0.2013,-0.2004,-0.1977,-0.1958,-0.1927,-0.1907,-0.1893,-0.1902,-0.1889,-0.1896,-0.1917,-0.1909,-0.1912,-0.1914,-0.1938,-0.1942,-0.1897,-0.1897,-0.1897,0,-0.2015,-0.2028,-0.2023,-0.2039,-0.2044,-0.2034,-0.2049,-0.2041,-0.2026,-0.2019,-0.2008,-0.1962,-0.1937,-0.1921,-0.1924,-0.191,-0.1914,-0.1905,-0.1915,-0.1917,-0.1918,-0.1942,-0.1946,-0.1899,-0.1899,-0.1899,-0.1899,0,-0.2034,-0.2046,-0.2054,-0.2069,-0.2074,-0.2084,-0.2083,-0.2081,-0.2068,-0.2057,-0.2038,-0.2002,-0.1975,-0.1966,-0.1946,-0.1943,-0.1947,-0.1922,-0.1907,-0.1924,-0.1948,-0.1952,-0.1903,-0.1902,-0.1901,-0.1901,0,0,-0.2026,-0.2061,-0.2061,-0.2075,-0.2091,-0.2096,-0.2106,-0.2109,-0.211,-0.2089,-0.2086,-0.2048,-0.2026,-0.2008,-0.198,-0.1971,-0.1993,-0.1954,-0.1953,-0.1984,-0.2003,-0.2108,-0.2122,-0.1969,-0.1969,-0.1969,-0.2026,0,-0.204,-0.2075,-0.2088,-0.2114,-0.2131,-0.2133,-0.2144,-0.2143,-0.2133,-0.2128,-0.2094,-0.2076,-0.2044,-0.2029,-0.2017,-0.199,-0.1998,-0.1981,-0.1976,-0.1977,-0.2072,-0.2127,-0.1794,-0.1826,-0.2029,-0.203,-0.203,0,-0.205,-0.2073,-0.2107,-0.2139,-0.2146,-0.2159,-0.2168,-0.2175,-0.2171,-0.2164,-0.2144,-0.2117,-0.2096,-0.2066,-0.2045,-0.2036,-0.2029,-0.2013,-0.2015,-0.2096,-0.2087,-0.1835,-0.1823,-0.2035,-0.2035,-0.2034,-0.2034,0,-0.2038,-0.2081,-0.2107,-0.2119,-0.2156,-0.2165,-0.2175,-0.218,-0.2185,-0.2181,-0.2187,-0.2155,-0.2142,-0.2116,-0.2095,-0.2066,-0.209,-0.2042,-0.2137,-0.2145,-0.1853,-0.1837,-0.2043,-0.2043,-0.2043,-0.2043,-0.2043,0,-0.2045,-0.2062,-0.2103,-0.2117,-0.2136,-0.2162,-0.2178,-0.2183,-0.22,-0.222,-0.2198,-0.2211,-0.2151,-0.2157,-0.2127,-0.2169,-0.212,-0.2165,-0.2171,-0.1867,-0.1853,-0.2013,-0.2009,-0.2045,-0.2045,-0.2044,-0.2044,0,-0.2024,-0.2059,-0.2083,-0.2123,-0.2133,-0.2139,-0.2174,-0.2193,-0.2211,-0.2239,-0.224,-0.225,-0.2282,-0.2259,-0.2237,-0.2231,-0.224,-0.2266,-0.1949,-0.1921,-0.2289,-0.2286,-0.2372,-0.2376,-0.238,-0.2383,-0.2385,0,-0.2017,-0.203,-0.2069,-0.2085,-0.2102,-0.2124,-0.215,-0.2182,-0.2212,-0.2272,-0.2294,-0.2339,-0.2383,-0.2425,-0.2298,-0.2284,-0.2377,-0.2113,-0.2014,-0.2328,-0.2324,-0.2316,-0.2308,-0.1626,-0.1622,-0.1619,-0.1616,0,-0.1986,-0.1999,-0.2017,-0.2052,-0.2081,-0.211,-0.2152,-0.2186,-0.2248,-0.2298,-0.2401,-0.2444,-0.2409,-0.2248,-0.2238,-0.2175,-0.2088,-0.2065,-0.2409,-0.1654,-0.1645,-0.1637,-0.1648,-0.1588,-0.1591,-0.1593,-0.1594,-0.1595,-0.1942,-0.1944,-0.1971,-0.1997,-0.2041,-0.2088,-0.2099,-0.2121,-0.2176,-0.2161,-0.2344,-0.2303,-0.2206,-0.2023,-0.1939,-0.1838,-0.1984,-0.191,-0.1908,-0.1912,-0.1876,-0.188,-0.1859,-0.1863,-0.1867,-0.187,-0.1873,0,-0.1841,-0.1889,-0.1918,-0.1955,-0.1939,-0.2017,-0.2092,-0.1993,-0.1986,-0.2019,-0.2038,-0.1802,-0.1727,-0.1704,-0.1438,-0.1451,-0.127,-0.1481,-0.1197,-0.1225,-0.125,-0.1171,-0.0972,-0.0971,-0.0969,-0.0968,0,0,-0.1793,-0.1771,-0.1791,-0.1784,-0.1848,-0.1759,-0.1779,-0.1656,-0.1594,-0.1462,-0.1454,-0.156,-0.1643,-0.1303,-0.1194,-0.1076,-0.114,-0.101,-0.1707,-0.1395,-0.142,-0.1455,-0.1363,0,0,0,0,0]},{"header":{"parameterUnit":"m.s-1","parameterCategory":2,"la1":30.2991,"la2":30.254,"lo1":-89.0895,"lo2":-89.0444,"dx":0.0017,"dy":0.0017,"nx":28,"ny":28,"refTime":"2022-12-18T15:00:00:Z","depth":"2","parameterNumber":3,"parameterNumberName":"V-component_of_CURRENTS"},"data":[0,0,0,0,0,0,0,0,0,0,0,0,0,0,0,0,0,0,0,0,0,0,0,0,0,0,0,0,0,0,0,0,0,0,0,0,0,0,0,0,0,0,0,0,0,0,0,0,0,0,0,0,0,0,0,0,0,0,-0.0462,-0.0462,0,-0.0405,-0.0405,-0.0404,-0.0381,-0.0381,-0.0381,-0.0381,-0.0332,-0.0331,-0.033,0,0,0,0,0,0,0,0,0,0,0,0,0,-0.0533,-0.0532,-0.0463,-0.0462,-0.0461,-0.0405,-0.0405,-0.0404,-0.0381,-0.0381,-0.0381,-0.0381,-0.0333,-0.0331,-0.0329,0,0,0,0,0,0,0,0,0,0,0,0,0,-0.0493,-0.0532,-0.0463,-0.0442,-0.044,-0.0405,-0.0405,-0.0404,-0.0381,-0.0381,-0.0381,-0.0381,-0.0333,-0.0331,-0.0329,-0.0315,0,0,-0.0323,-0.0322,0,0,0,0,0,0,0,0,-0.0495,-0.049,-0.0446,-0.0443,-0.044,-0.0399,-0.0411,-0.0374,-0.0381,-0.0404,-0.0381,-0.0381,-0.0355,-0.0351,-0.0341,-0.0313,-0.0311,-0.0323,-0.0322,-0.0321,-0.032,0,0,0,0,0,0,0,-0.0498,-0.0492,-0.0441,-0.0445,-0.0442,-0.0429,-0.0424,-0.0404,-0.0381,-0.0402,-0.04,-0.0392,-0.0354,-0.0343,-0.034,-0.031,-0.0323,-0.0321,-0.032,-0.0319,-0.0266,-0.0266,0,0,0,0,0,0,-0.0504,-0.0495,-0.0442,-0.0439,-0.0468,-0.0428,-0.0422,-0.0413,-0.038,-0.0375,-0.0392,-0.0391,-0.0347,-0.0342,-0.0338,-0.0317,-0.0321,-0.0319,-0.0318,-0.0266,-0.0266,-0.0266,0,0,0,0,0,0,-0.0506,-0.05,-0.0445,-0.0465,-0.0457,-0.0427,-0.0417,-0.0412,-0.0402,-0.0373,-0.0368,-0.0388,-0.0347,-0.0341,-0.0319,-0.0315,-0.0318,-0.0316,-0.0266,-0.0266,-0.0266,-0.0276,0,0,0,0,0,0,-0.0508,-0.0501,-0.05,-0.0465,-0.0456,-0.0427,-0.0417,-0.0411,-0.0397,-0.0395,-0.0367,-0.0363,-0.0346,-0.0322,-0.0317,-0.0312,-0.0315,-0.0267,-0.0266,-0.0266,-0.0275,-0.0276,-0.0276,0,0,0,0,0,-0.0511,-0.051,-0.05,-0.0494,-0.0455,-0.0426,-0.0421,-0.04,-0.0397,-0.0392,-0.0371,-0.0364,-0.0316,-0.032,-0.0314,-0.0309,-0.0267,-0.0266,-0.0266,-0.0275,-0.0276,-0.0276,0,0,0,0,0,0,-0.0541,-0.0506,-0.0495,-0.0484,-0.0458,-0.0422,-0.0417,-0.0402,-0.0382,-0.0383,-0.0358,-0.0351,-0.0332,-0.0319,-0.0324,-0.0293,-0.0291,-0.029,-0.0301,-0.0301,-0.0301,-0.0302,-0.0313,0,0,0,0,0,-0.0547,-0.0538,-0.0501,-0.0493,-0.0481,-0.045,-0.0438,-0.0421,-0.0397,-0.0388,-0.0366,-0.0345,-0.0324,-0.0312,-0.0293,-0.0274,-0.0263,-0.0268,-0.0268,-0.0268,-0.0265,-0.0248,-0.0247,-0.0264,-0.0264,-0.0264,0,0,-0.0558,-0.0537,-0.0532,-0.0499,-0.0479,-0.0462,-0.0443,-0.0425,-0.0408,-0.0386,-0.0363,-0.0345,-0.032,-0.0298,-0.0288,-0.0287,-0.0257,-0.0267,-0.0268,-0.0264,-0.0247,-0.0246,-0.0244,-0.0264,-0.0264,-0.0264,0,0,-0.0576,-0.0555,-0.0554,-0.0531,-0.05,-0.0475,-0.0471,-0.0434,-0.0417,-0.039,-0.0371,-0.0349,-0.0318,-0.0295,-0.0281,-0.027,-0.026,-0.0269,-0.0267,-0.0251,-0.0249,-0.0248,-0.0231,-0.0228,-0.0267,-0.0267,-0.0267,0,-0.0592,-0.0581,-0.055,-0.0539,-0.0522,-0.0483,-0.0474,-0.0447,-0.0407,-0.0389,-0.0386,-0.0333,-0.0314,-0.0281,-0.0278,-0.027,-0.0261,-0.0269,-0.0251,-0.0249,-0.0248,-0.0231,-0.0228,-0.0268,-0.0267,-0.0267,-0.0267,0,-0.0605,-0.0594,-0.0591,-0.0563,-0.0539,-0.0526,-0.0481,-0.0456,-0.0432,-0.0401,-0.0364,-0.0334,-0.0301,-0.0293,-0.0281,-0.0257,-0.0256,-0.0255,-0.0252,-0.0246,-0.023,-0.0226,-0.0268,-0.0268,-0.0268,-0.0268,0,0,-0.0647,-0.061,-0.0609,-0.0598,-0.055,-0.0533,-0.0499,-0.0455,-0.0432,-0.0392,-0.0359,-0.0323,-0.0304,-0.0287,-0.0267,-0.0251,-0.0232,-0.025,-0.0249,-0.0236,-0.0198,-0.015,-0.0141,-0.0232,-0.0232,-0.0231,-0.0191,0,-0.0669,-0.0665,-0.063,-0.0615,-0.0609,-0.0553,-0.0522,-0.0475,-0.0433,-0.0389,-0.0345,-0.0312,-0.0301,-0.0288,-0.0267,-0.0235,-0.0223,-0.0243,-0.0203,-0.0202,-0.0161,-0.0135,-0.0098,-0.0055,-0.0188,-0.0187,-0.0186,0,-0.0695,-0.0688,-0.0687,-0.0641,-0.0631,-0.061,-0.0551,-0.0518,-0.0442,-0.0407,-0.0359,-0.0321,-0.0273,-0.0276,-0.0218,-0.0233,-0.022,-0.0201,-0.0199,-0.0147,-0.0146,-0.0081,-0.0043,-0.018,-0.0181,-0.0181,-0.0181,0,-0.0753,-0.0722,-0.0725,-0.0712,-0.0657,-0.0637,-0.0602,-0.0531,-0.0499,-0.0422,-0.0389,-0.0323,-0.0287,-0.0256,-0.0201,-0.0216,-0.014,-0.0157,-0.0103,-0.01,-0.0055,-0.0048,-0.0134,-0.0134,-0.0134,-0.0134,-0.0134,0,-0.0795,-0.0792,-0.0754,-0.0757,-0.0746,-0.0687,-0.0659,-0.0608,-0.0535,-0.0491,-0.041,-0.0359,-0.0283,-0.0221,-0.0193,-0.0116,-0.0132,-0.0091,-0.008,-0.0056,-0.005,-0.0151,-0.0153,-0.0132,-0.0133,-0.0133,-0.0133,0,-0.0859,-0.0835,-0.0835,-0.0792,-0.0778,-0.0773,-0.0706,-0.0684,-0.0602,-0.054,-0.0517,-0.0387,-0.0282,-0.0201,-0.0128,-0.0097,-0.004,-0.0021,0.0009,0.0023,-0.0019,-0.0023,0.0043,0.0045,0.0047,0.0048,0.005,0,-0.089,-0.0902,-0.0881,-0.0888,-0.087,-0.0848,-0.0829,-0.0739,-0.0701,-0.0555,-0.0526,-0.0391,-0.0283,-0.0126,-0.0012,0.0082,0.0022,0.0121,0.0101,-0.0002,0.0002,-0.0005,-0.0011,0.0151,0.0153,0.0155,0.0156,0,-0.0948,-0.0944,-0.0949,-0.0976,-0.0968,-0.0946,-0.0902,-0.088,-0.0758,-0.068,-0.0551,-0.0449,-0.0214,-0.0041,0.0111,0.0151,0.0117,0.0157,0.0054,0.0104,0.0105,0.0106,0.0096,0.0171,0.0169,0.0168,0.0167,0.0167,-0.0989,-0.1016,-0.1036,-0.1059,-0.1056,-0.1044,-0.1043,-0.0956,-0.0885,-0.0752,-0.0615,-0.0451,-0.0214,0.0027,0.0178,0.0294,0.0258,0.0239,0.0232,0.0223,0.0232,0.0237,0.0329,0.0328,0.0328,0.0327,0.0327,0,-0.1023,-0.1075,-0.1114,-0.114,-0.1149,-0.1132,-0.1093,-0.105,-0.0968,-0.0835,-0.0693,-0.0432,-0.0178,0.0032,0.0274,0.0405,0.0386,0.0386,0.0345,0.0332,0.0319,0.033,0.0454,0.0455,0.0455,0.0455,0,0,-0.1045,-0.1102,-0.1131,-0.1199,-0.1233,-0.1222,-0.121,-0.1129,-0.1033,-0.089,-0.0771,-0.057,-0.0242,-0.0064,0.0175,0.0309,0.0247,0.0304,0.0193,0.0104,0.0088,0.024,0.0243,0,0,0,0,0]}],[{"header":{"parameterUnit":"m.s-1","parameterCategory":2,"la1":30.2991,"la2":30.254,"lo1":-89.0895,"lo2":-89.0444,"dx":0.0017,"dy":0.0017,"nx":28,"ny":28,"refTime":"2022-12-18T15:00:00:Z","depth":"4","parameterNumber":2,"parameterNumberName":"U-component_of_CURRENTS"},"data":[0,0,0,0,0,0,0,0,0,0,0,0,0,0,0,0,0,0,0,0,0,0,0,0,0,0,0,0,0,0,0,0,0,0,0,0,0,0,0,0,0,0,0,0,0,0,0,0,0,0,0,0,0,0,0,0,0,0,-0.0845,-0.0845,0,-0.0845,-0.0845,-0.0845,-0.0855,-0.0855,-0.0856,-0.0856,-0.0851,-0.0851,-0.085,0,0,0,0,0,0,0,0,0,0,0,0,0,-0.0829,-0.0829,-0.0845,-0.0845,-0.0845,-0.0845,-0.0845,-0.0845,-0.0855,-0.0855,-0.0856,-0.0856,-0.0852,-0.0851,-0.085,0,0,0,0,0,0,0,0,0,0,0,0,0,-0.0831,-0.0829,-0.0845,-0.0852,-0.0852,-0.0845,-0.0845,-0.0844,-0.0855,-0.0855,-0.0856,-0.0856,-0.0852,-0.0851,-0.085,-0.0833,0,0,-0.0848,-0.0847,0,0,0,0,0,0,0,0,-0.0831,-0.0832,-0.085,-0.0851,-0.0852,-0.0852,-0.0837,-0.0841,-0.0854,-0.0852,-0.0856,-0.0857,-0.0852,-0.0851,-0.0847,-0.0832,-0.0832,-0.0848,-0.0847,-0.0847,-0.0847,0,0,0,0,0,0,0,-0.0831,-0.0832,-0.0843,-0.0851,-0.0851,-0.0846,-0.0847,-0.0838,-0.0847,-0.0852,-0.0853,-0.0856,-0.0852,-0.0848,-0.0847,-0.0832,-0.0848,-0.0847,-0.0847,-0.0846,-0.0844,-0.0845,0,0,0,0,0,0,-0.0835,-0.0832,-0.0843,-0.0843,-0.0845,-0.0846,-0.0847,-0.085,-0.0847,-0.0848,-0.0855,-0.0856,-0.0849,-0.0848,-0.0847,-0.0869,-0.0847,-0.0846,-0.0846,-0.0844,-0.0844,-0.0845,0,0,0,0,0,0,-0.0835,-0.0836,-0.0843,-0.0839,-0.084,-0.0846,-0.0849,-0.085,-0.0863,-0.085,-0.085,-0.0871,-0.0849,-0.0848,-0.0854,-0.0868,-0.0846,-0.0845,-0.0843,-0.0844,-0.0845,-0.0886,0,0,0,0,0,0,-0.0834,-0.0836,-0.0846,-0.0839,-0.084,-0.0854,-0.0848,-0.0849,-0.0864,-0.0865,-0.0863,-0.0862,-0.085,-0.0855,-0.0853,-0.0866,-0.0845,-0.0843,-0.0844,-0.0845,-0.0884,-0.0888,-0.0891,0,0,0,0,0,-0.0834,-0.0845,-0.0846,-0.0848,-0.0851,-0.0855,-0.0855,-0.086,-0.0864,-0.0874,-0.0871,-0.0863,-0.0859,-0.0855,-0.0853,-0.0865,-0.0843,-0.0844,-0.0844,-0.0882,-0.0887,-0.0891,0,0,0,0,0,0,-0.0845,-0.0846,-0.0848,-0.086,-0.0864,-0.0858,-0.0869,-0.087,-0.0874,-0.0881,-0.0867,-0.0866,-0.0876,-0.0864,-0.086,-0.0867,-0.085,-0.085,-0.0879,-0.0884,-0.0887,-0.0888,-0.0844,0,0,0,0,0,-0.0851,-0.0859,-0.0859,-0.0871,-0.0875,-0.0874,-0.0879,-0.0883,-0.0883,-0.0887,-0.0884,-0.088,-0.0874,-0.0875,-0.0868,-0.0871,-0.0856,-0.0878,-0.0881,-0.0884,-0.0883,-0.0864,-0.0866,-0.0848,-0.0848,-0.0848,0,0,-0.086,-0.0861,-0.0867,-0.0874,-0.0877,-0.0887,-0.0879,-0.0893,-0.0903,-0.0884,-0.0902,-0.0894,-0.0877,-0.0882,-0.0886,-0.0877,-0.0886,-0.0886,-0.0888,-0.0885,-0.0865,-0.0867,-0.0868,-0.0849,-0.0849,-0.0848,0,0,-0.0875,-0.0882,-0.0893,-0.0899,-0.0909,-0.0908,-0.0917,-0.0921,-0.0928,-0.0938,-0.0926,-0.0925,-0.0923,-0.0909,-0.0902,-0.0919,-0.0905,-0.0924,-0.0943,-0.0925,-0.0927,-0.0927,-0.0928,-0.0928,-0.0926,-0.0926,-0.0926,0,-0.0887,-0.0897,-0.0898,-0.091,-0.092,-0.0921,-0.0936,-0.0939,-0.0946,-0.0949,-0.0953,-0.0942,-0.0932,-0.0924,-0.0933,-0.0927,-0.0923,-0.093,-0.093,-0.093,-0.093,-0.093,-0.093,-0.0928,-0.0928,-0.0928,-0.0928,0,-0.0902,-0.0919,-0.0928,-0.0942,-0.0953,-0.0967,-0.0972,-0.0985,-0.0993,-0.099,-0.0995,-0.0979,-0.0972,-0.0969,-0.0959,-0.0956,-0.0956,-0.0937,-0.092,-0.0935,-0.0934,-0.0933,-0.0931,-0.0931,-0.093,-0.0929,0,0,-0.0901,-0.0934,-0.0938,-0.0953,-0.0972,-0.098,-0.1,-0.101,-0.1024,-0.1025,-0.1036,-0.102,-0.1013,-0.1003,-0.0988,-0.0973,-0.0977,-0.0964,-0.0962,-0.0966,-0.0956,-0.093,-0.0927,-0.0962,-0.0961,-0.0961,-0.0961,0,-0.0914,-0.0943,-0.0956,-0.0988,-0.1002,-0.1016,-0.1035,-0.1045,-0.1053,-0.1066,-0.1043,-0.1049,-0.1025,-0.103,-0.1011,-0.0984,-0.0974,-0.0979,-0.0939,-0.0938,-0.0913,-0.0924,-0.096,-0.0961,-0.096,-0.096,-0.096,0,-0.0915,-0.0936,-0.0971,-0.1011,-0.102,-0.1042,-0.107,-0.1087,-0.1098,-0.1107,-0.1102,-0.1091,-0.1074,-0.1055,-0.101,-0.1019,-0.0994,-0.097,-0.0969,-0.0926,-0.0909,-0.0937,-0.0958,-0.0959,-0.0959,-0.0959,-0.0959,0,-0.0896,-0.0943,-0.0973,-0.0986,-0.1031,-0.1053,-0.1077,-0.1098,-0.1115,-0.1133,-0.1151,-0.1124,-0.1124,-0.1078,-0.1036,-0.1027,-0.0992,-0.0967,-0.092,-0.0919,-0.0924,-0.0923,-0.0936,-0.0936,-0.0936,-0.0936,-0.0936,0,-0.0886,-0.0912,-0.0972,-0.0985,-0.1024,-0.1057,-0.1096,-0.1116,-0.1149,-0.1169,-0.1171,-0.1178,-0.1131,-0.1107,-0.1055,-0.0991,-0.1005,-0.0925,-0.0912,-0.0945,-0.0946,-0.0925,-0.0924,-0.0936,-0.0936,-0.0936,-0.0936,0,-0.085,-0.0893,-0.0929,-0.0991,-0.1015,-0.104,-0.1107,-0.113,-0.1172,-0.1202,-0.1211,-0.1221,-0.1192,-0.1146,-0.1082,-0.102,-0.0957,-0.0933,-0.0995,-0.0986,-0.0893,-0.0894,-0.0871,-0.087,-0.0869,-0.0868,-0.0868,0,-0.0832,-0.0848,-0.0922,-0.0949,-0.0981,-0.1032,-0.1068,-0.1127,-0.1153,-0.1217,-0.1224,-0.1232,-0.1224,-0.1119,-0.1071,-0.098,-0.0956,-0.0925,-0.0882,-0.0895,-0.0885,-0.0887,-0.0889,-0.0866,-0.0866,-0.0866,-0.0866,0,-0.0787,-0.0821,-0.0847,-0.0904,-0.0951,-0.0999,-0.1057,-0.1073,-0.1142,-0.1203,-0.1213,-0.1185,-0.1164,-0.1095,-0.1045,-0.0971,-0.0939,-0.0915,-0.0916,-0.0874,-0.0889,-0.088,-0.0883,-0.0863,-0.0863,-0.0863,-0.0864,0,-0.0748,-0.0754,-0.0794,-0.0833,-0.0897,-0.0931,-0.0979,-0.1023,-0.106,-0.1145,-0.1149,-0.1153,-0.118,-0.1092,-0.1036,-0.0974,-0.0936,-0.088,-0.0882,-0.0885,-0.088,-0.09,-0.0867,0,0,0,0,0,-0.0696,-0.0687,-0.0721,-0.0754,-0.0819,-0.0848,-0.095,-0.1002,-0.1086,-0.1081,-0.1114,-0.1095,-0.1037,-0.103,-0.0956,-0.0994,-0.0912,-0.0901,-0.0845,-0.0846,-0.0849,-0.0838,0,0,0,0,0,0,-0.0657,-0.0673,-0.0682,-0.0676,-0.0683,-0.0741,-0.0799,-0.0868,-0.0879,-0.0972,-0.0948,-0.1016,-0.0966,-0.1047,-0.0922,-0.0917,-0.0858,-0.0909,-0.0906,-0.0844,-0.0847,-0.085,-0.084,0,0,0,0,0]},{"header":{"parameterUnit":"m.s-1","parameterCategory":2,"la1":30.2991,"la2":30.254,"lo1":-89.0895,"lo2":-89.0444,"dx":0.0017,"dy":0.0017,"nx":28,"ny":28,"refTime":"2022-12-18T15:00:00:Z","depth":"4","parameterNumber":3,"parameterNumberName":"V-component_of_CURRENTS"},"data":[0,0,0,0,0,0,0,0,0,0,0,0,0,0,0,0,0,0,0,0,0,0,0,0,0,0,0,0,0,0,0,0,0,0,0,0,0,0,0,0,0,0,0,0,0,0,0,0,0,0,0,0,0,0,0,0,0,0,-0.0068,-0.0068,0,-0.0026,-0.0026,-0.0026,-0.0012,-0.0012,-0.0012,-0.0012,0.0014,0.0015,0.0016,0,0,0,0,0,0,0,0,0,0,0,0,0,-0.0123,-0.0122,-0.0068,-0.0068,-0.0067,-0.0027,-0.0026,-0.0026,-0.0012,-0.0012,-0.0012,-0.0012,0.0014,0.0015,0.0016,0,0,0,0,0,0,0,0,0,0,0,0,0,-0.0093,-0.0122,-0.0068,-0.0054,-0.0053,-0.0027,-0.0026,-0.0025,-0.0012,-0.0012,-0.0012,-0.0012,0.0014,0.0015,0.0016,0.0026,0,0,0.002,0.002,0,0,0,0,0,0,0,0,-0.0095,-0.0091,-0.0057,-0.0055,-0.0053,-0.0024,-0.0035,-0.0009,-0.0012,-0.0029,-0.0012,-0.0012,0.0001,0.0003,0.001,0.0027,0.0028,0.002,0.002,0.0021,0.0021,0,0,0,0,0,0,0,-0.0097,-0.0093,-0.0053,-0.0056,-0.0054,-0.0046,-0.0042,-0.003,-0.0015,-0.0027,-0.0026,-0.0019,0.0002,0.0009,0.0011,0.0028,0.002,0.0021,0.0021,0.0022,0.0053,0.0054,0,0,0,0,0,0,-0.01,-0.0095,-0.0054,-0.0051,-0.0074,-0.0045,-0.004,-0.0034,-0.0015,-0.0011,-0.0019,-0.0019,0.0007,0.0009,0.0012,0.0027,0.0021,0.0022,0.0023,0.0053,0.0053,0.0054,0,0,0,0,0,0,-0.0102,-0.0097,-0.0056,-0.0071,-0.0065,-0.0044,-0.0036,-0.0033,-0.0028,-0.0008,-0.0005,-0.0018,0.0007,0.001,0.0023,0.0028,0.0023,0.0024,0.0053,0.0053,0.0054,0.0057,0,0,0,0,0,0,-0.0103,-0.0098,-0.0099,-0.0072,-0.0065,-0.0043,-0.0036,-0.0032,-0.0023,-0.0022,-0.0006,-0.0003,0.0007,0.0022,0.0024,0.003,0.0025,0.0053,0.0053,0.0053,0.0056,0.0057,0.0057,0,0,0,0,0,-0.0105,-0.0105,-0.0099,-0.0094,-0.0065,-0.0042,-0.0038,-0.0024,-0.0023,-0.002,-0.0008,-0.0004,0.0025,0.0023,0.0026,0.0032,0.0053,0.0053,0.0053,0.0056,0.0057,0.0057,0,0,0,0,0,0,-0.013,-0.0102,-0.0096,-0.0087,-0.0068,-0.004,-0.0038,-0.0026,-0.0014,-0.0017,0.0,0.0004,0.0016,0.0023,0.002,0.0041,0.0039,0.004,0.0039,0.004,0.0041,0.0039,0.0025,0,0,0,0,0,-0.0135,-0.0129,-0.01,-0.0095,-0.0086,-0.0063,-0.0054,-0.0043,-0.0025,-0.002,-0.0006,0.0007,0.002,0.0029,0.0039,0.0053,0.0063,0.0058,0.0059,0.0059,0.006,0.008,0.0082,0.0055,0.0055,0.0055,0,0,-0.0144,-0.0128,-0.0125,-0.01,-0.0086,-0.0072,-0.0059,-0.0046,-0.0033,-0.002,-0.0004,0.0007,0.0023,0.0039,0.0045,0.0046,0.0072,0.0059,0.006,0.006,0.0081,0.0083,0.0086,0.0055,0.0055,0.0055,0,0,-0.0156,-0.0144,-0.0142,-0.0125,-0.0103,-0.0084,-0.0081,-0.0054,-0.0042,-0.0024,-0.0011,0.0006,0.0024,0.0044,0.0054,0.0064,0.0071,0.0062,0.0069,0.0088,0.0091,0.0093,0.0111,0.0115,0.0066,0.0066,0.0066,0,-0.0168,-0.0159,-0.0138,-0.0129,-0.0117,-0.0091,-0.0083,-0.0063,-0.0035,-0.0021,-0.0023,0.0016,0.0028,0.0059,0.0062,0.0066,0.0075,0.0066,0.0089,0.0092,0.0094,0.0112,0.0116,0.0066,0.0066,0.0066,0.0066,0,-0.0173,-0.0167,-0.0165,-0.0144,-0.0128,-0.0118,-0.0085,-0.0069,-0.0053,-0.003,-0.0002,0.0021,0.0044,0.0052,0.006,0.0086,0.0086,0.0085,0.0088,0.0097,0.0115,0.012,0.0066,0.0066,0.0066,0.0066,0,0,-0.0197,-0.0174,-0.0174,-0.017,-0.0136,-0.0125,-0.0098,-0.0065,-0.0049,-0.0019,0.0005,0.0036,0.005,0.0062,0.0079,0.01,0.0125,0.0098,0.0099,0.0116,0.0166,0.0167,0.0172,0.0126,0.0127,0.0128,0.0172,0,-0.0209,-0.0208,-0.0184,-0.0177,-0.0173,-0.0136,-0.0115,-0.0081,-0.005,-0.002,0.0019,0.0041,0.0054,0.0062,0.0088,0.0114,0.0136,0.0113,0.0153,0.0155,0.0156,0.0177,0.013,0.0175,0.0176,0.0177,0.0178,0,-0.022,-0.0219,-0.0221,-0.0198,-0.0192,-0.0181,-0.0144,-0.0121,-0.0064,-0.0041,0.0001,0.0031,0.0076,0.0075,0.0138,0.012,0.0141,0.0162,0.0164,0.0167,0.0164,0.0164,0.0186,0.0185,0.0185,0.0184,0.0183,0,-0.0256,-0.0241,-0.0249,-0.0241,-0.0211,-0.0203,-0.0185,-0.0134,-0.0117,-0.0057,-0.0038,0.0026,0.005,0.0094,0.0146,0.0138,0.0208,0.0203,0.0228,0.0228,0.0211,0.0208,0.0241,0.0241,0.0241,0.024,0.024,0,-0.0276,-0.0281,-0.0271,-0.0276,-0.0282,-0.0245,-0.0238,-0.0203,-0.0157,-0.0135,-0.006,-0.003,0.0053,0.0108,0.0149,0.0208,0.0213,0.0235,0.0243,0.0211,0.0208,0.0215,0.0211,0.0242,0.0242,0.0241,0.0241,0,-0.031,-0.0304,-0.0315,-0.0303,-0.0303,-0.0311,-0.0289,-0.0281,-0.0225,-0.0193,-0.0177,-0.0075,0.0001,0.0087,0.0165,0.0208,0.0264,0.0279,0.0245,0.0249,0.027,0.0266,0.0315,0.0315,0.0316,0.0316,0.0316,0,-0.0324,-0.0337,-0.0352,-0.0373,-0.0372,-0.0378,-0.0382,-0.0331,-0.0313,-0.0223,-0.0209,-0.0117,-0.0047,0.0071,0.0163,0.0264,0.0269,0.0307,0.0288,0.0277,0.0279,0.0274,0.027,0.0317,0.0317,0.0317,0.0317,0,-0.0353,-0.0366,-0.0381,-0.0431,-0.0451,-0.0464,-0.0458,-0.0451,-0.0381,-0.0326,-0.0243,-0.0148,-0.0053,0.0058,0.0145,0.0212,0.0292,0.0311,0.0311,0.0292,0.028,0.0281,0.0276,0.0319,0.0319,0.0319,0.0318,0,-0.0378,-0.0405,-0.044,-0.0479,-0.0516,-0.054,-0.0529,-0.0494,-0.0464,-0.0347,-0.0324,-0.0193,-0.0102,0.0031,0.0109,0.0187,0.0198,0.0218,0.0222,0.0222,0.0185,0.0155,0.0167,0,0,0,0,0,-0.0395,-0.0435,-0.0484,-0.053,-0.057,-0.0587,-0.0572,-0.0546,-0.0472,-0.0429,-0.0372,-0.028,-0.0122,-0.0039,0.0032,0.01,0.0201,0.0188,0.0221,0.0327,0.0325,0.0299,0,0,0,0,0,0,-0.0411,-0.0461,-0.0492,-0.0565,-0.0607,-0.0642,-0.0639,-0.0591,-0.0549,-0.0462,-0.0386,-0.0277,-0.0136,-0.0186,0.0022,0.0055,0.0086,0.0281,0.0283,0.0328,0.0326,0.0325,0.0297,0,0,0,0,0]}]]